DLH3HH EDDF-EDDM

Flight info

Callsign DLH3HH
Flight time N/A
Altitude 23000
Route CINDY6F CINDY Z74 HAREM T104 ROKIL ROKIL1B
Aircraft A320/M-SDE2E3FGIJ1LORWXYZ/HB1

Departure

Time 2026-04-19 04:57
Airport Frankfurt Main Airport (EDDF)

Arrival

Time N/A
Airport Munich Airport (EDDM)
Time Latitude Longitude Altitude Speed Heading
2026-04-19 04:32 50.04431 8.56329 362 ft 0 kts 167°
2026-04-19 04:46 50.04434 8.56328 329 ft 3 kts 167°
2026-04-19 04:46 50.04460 8.56319 358 ft 4 kts 171°
2026-04-19 04:47 50.04486 8.56316 356 ft 4 kts 192°
2026-04-19 04:47 50.04504 8.56332 363 ft 1 kts 249°
2026-04-19 04:47 50.04500 8.56316 357 ft 4 kts 249°
2026-04-19 04:47 50.04491 8.56277 356 ft 4 kts 249°
2026-04-19 04:48 50.04482 8.56238 363 ft 4 kts 249°
2026-04-19 04:48 50.04472 8.56198 357 ft 4 kts 249°
2026-04-19 04:48 50.04463 8.56159 359 ft 4 kts 249°
2026-04-19 04:48 50.04454 8.56121 363 ft 2 kts 249°
2026-04-19 04:49 50.04453 8.56119 363 ft 0 kts 249°
2026-04-19 04:50 50.04443 8.56076 357 ft 10 kts 249°
2026-04-19 04:50 50.04384 8.56033 358 ft 9 kts 162°
2026-04-19 04:51 50.04334 8.56059 358 ft 6 kts 161°
2026-04-19 04:51 50.04293 8.56109 360 ft 11 kts 115°
2026-04-19 04:51 50.04261 8.56231 362 ft 12 kts 155°
2026-04-19 04:51 50.04193 8.56267 354 ft 9 kts 161°
2026-04-19 04:52 50.04147 8.56310 359 ft 10 kts 122°
2026-04-19 04:52 50.04172 8.56470 361 ft 21 kts 70°
2026-04-19 04:52 50.04224 8.56680 357 ft 19 kts 70°
2026-04-19 04:52 50.04261 8.56844 363 ft 13 kts 70°
2026-04-19 04:53 50.04291 8.56965 362 ft 13 kts 69°
2026-04-19 04:53 50.04335 8.57143 363 ft 22 kts 69°
2026-04-19 04:53 50.04387 8.57376 367 ft 23 kts 70°
2026-04-19 04:53 50.04441 8.57596 366 ft 20 kts 68°
2026-04-19 04:54 50.04487 8.57785 367 ft 17 kts 70°
2026-04-19 04:54 50.04526 8.57957 364 ft 20 kts 70°
2026-04-19 04:54 50.04583 8.58200 365 ft 24 kts 70°
2026-04-19 04:54 50.04639 8.58426 370 ft 19 kts 70°
2026-04-19 04:55 50.04653 8.58534 369 ft 6 kts 103°
2026-04-19 04:55 50.04612 8.58577 371 ft 7 kts 158°
2026-04-19 04:55 50.04582 8.58594 370 ft 4 kts 160°
2026-04-19 04:55 50.04540 8.58618 371 ft 6 kts 160°
2026-04-19 04:56 50.04501 8.58612 371 ft 9 kts 212°
2026-04-19 04:56 50.04462 8.58486 370 ft 15 kts 249°
2026-04-19 04:56 50.04428 8.58337 369 ft 15 kts 251°
2026-04-19 04:56 50.04361 8.58049 367 ft 60 kts 250°
2026-04-19 04:57 50.04132 8.57090 365 ft 126 kts 249°
2026-04-19 04:57 50.03755 8.55570 486 ft 165 kts 252°
2026-04-19 04:57 50.03333 8.53908 1197 ft 167 kts 250°
2026-04-19 04:57 50.02920 8.52193 1924 ft 171 kts 249°
2026-04-19 04:58 50.02347 8.50534 2586 ft 180 kts 229°
2026-04-19 04:58 50.01327 8.49346 3192 ft 189 kts 202°
2026-04-19 04:58 50.00027 8.48891 3840 ft 196 kts 182°
2026-04-19 04:58 49.98625 8.49099 4439 ft 212 kts 167°
2026-04-19 04:59 49.97215 8.49849 5197 ft 221 kts 156°
2026-04-19 04:59 49.95866 8.51035 6082 ft 225 kts 148°
2026-04-19 04:59 49.94501 8.52232 6930 ft 229 kts 160°
2026-04-19 04:59 49.92921 8.52920 7541 ft 243 kts 171°
2026-04-19 05:00 49.91200 8.53268 8246 ft 255 kts 176°
2026-04-19 05:00 49.89397 8.53470 9059 ft 265 kts 178°
2026-04-19 05:00 49.87531 8.53601 9936 ft 272 kts 179°
2026-04-19 05:00 49.85623 8.53688 10769 ft 276 kts 181°
2026-04-19 05:01 49.83673 8.53734 11499 ft 287 kts 181°
2026-04-19 05:01 49.81619 8.53751 12030 ft 304 kts 181°
2026-04-19 05:01 49.79456 8.53823 12646 ft 317 kts 180°
2026-04-19 05:01 49.77214 8.53925 13313 ft 327 kts 183°
2026-04-19 05:02 49.74914 8.53766 14007 ft 335 kts 187°
2026-04-19 05:02 49.72573 8.53491 14689 ft 340 kts 187°
2026-04-19 05:02 49.70190 8.53248 15389 ft 346 kts 182°
2026-04-19 05:02 49.67791 8.53814 16120 ft 355 kts 164°
2026-04-19 05:03 49.65570 8.55525 16872 ft 362 kts 146°
2026-04-19 05:03 49.63727 8.58233 17475 ft 373 kts 129°
2026-04-19 05:03 49.62430 8.61757 18044 ft 384 kts 112°
2026-04-19 05:03 49.61761 8.65772 18646 ft 390 kts 97°
2026-04-19 05:04 49.61642 8.69976 19242 ft 394 kts 90°
2026-04-19 05:04 49.61679 8.74212 19880 ft 397 kts 88°